Regional Weather Roundup
Issued by NWS Bismarck, ND

Home | Current Version | Previous Version | Text Only | Print | Product List | Glossary On
Versions: 1 2 3 4 5 6 7 8 9 10 11 12 13 14 15 16 17 18 19 20 21 22 23 24 25 26 27 28 29 30 31 32 33 34 35 36 37 38 39 40 41 42 43 44 45 46 47 48 49 50
000
ASUS43 KBIS 160602
RWRBIS

NWR BROADCAST TEXT
NATIONAL WEATHER SERVICE BISMARCK ND
1200 AM CST MON JAN 16 2017

NOTE: "FAIR" INDICATES FEW OR NO CLOUDS BELOW 12,000 FEET WITH NO
SIGNIFICANT WEATHER AND/OR OBSTRUCTIONS TO VISIBILITY.


CITY           SKY/WX    TMP DP  RH WIND       PRES   REMARKS
WILLISTON      FAIR      12   5  73 SW6       30.02R WCI   3
MINOT          FAIR      21  10  62 SW12      29.98R WCI   9
MINOT AFB      NOT AVBL
BISMARCK       FAIR      -1  -5  82 CALM      30.06R
DICKINSON      FAIR      16   5  62 W14       30.00R WCI   2
GARRISON         N/A     10   4  76 SW5       30.01R WCI   2
HETTINGER ARPT FAIR      12   5  73 W5        30.06R WCI   4
JAMESTOWN      FAIR       6   1  80 S7        30.03S WCI  -6
CARRINGTON     FAIR      14   7  73 W5        30.04R WCI   6
HAZEN            N/A    N/A N/A N/A SW7       30.05R
STANLEY        FAIR      14   9  79 W14       29.99R WCI  -1
WATFORD CITY   FAIR      12   5  73 SW12      30.01R WCI  -2
$$

CITY           SKY/WX    TMP DP  RH WIND       PRES   REMARKS
GRAND FORKS    FAIR       8   2  76 S10       30.05R WCI  -6
GRAND FORKS AF CLEAR      8   2  77 S10       30.04R WCI  -7
DEVILS LAKE    FAIR      11   5  77 SW7       30.00S WCI   0
FARGO          FAIR      13  10  88 S13       30.08S WCI  -2
GRAFTON        FAIR      12   5  73 SW14      30.02R WCI  -3
GWINNER        FAIR      14  10  85 SW15      30.08F WCI  -1
$$

CITY           SKY/WX    TMP DP  RH WIND       PRES   REMARKS
ABERDEEN       FAIR      -1  -6  79 S7        30.11F WCI -14
MOBRIDGE       FAIR       3  -4  72 SE7       30.06S WCI  -9
BUFFALO          N/A     22   9  57 W5        29.97R WCI  16
RAPID CITY     FAIR      22   9  57 N10       30.04R WCI  11
GLASGOW        FAIR       1  -3  83 W8        30.04R WCI -13
SIDNEY         FAIR       8   3  80 S7        30.04R WCI  -3
WOLF POINT     FAIR       4  -2  76 W6        30.05R WCI  -7
GLENDIVE       FAIR       6   0  76 S7        30.05R WCI  -6
MILES CITY     FAIR       8   0  69 S6        30.09R WCI  -2
BAKER          FAIR      15   5  64 NW9       30.04R WCI   3
$$

CITY           SKY/WX    TMP DP  RH WIND       PRES   REMARKS
BILLINGS       FAIR      19   6  57 SW18      30.09R WCI   4
GREAT FALLS    FAIR      23   8  52 SW17      30.09R WCI   9
$$





USA.gov is the U.S. government's official web portal to all federal, state and local government web resources and services.